STARLINK-33945, 64154

Orbit data source: Space-Track

STARLINK-33945, 64154 is a payload satellite owned by SpaceX/Seattle (US) in SSO that was launched on Tue, 27 May 2025 UTC via an FALCON 9 launch vehicle from the Air Force Western Test Range (AFWTR). Payload-class satellites include a variety of spacecraft equipped with specific instruments for various scientific and technological missions. These include communications satellites like Starlink; space stations such as the ISS; scientific satellites like the Hubble; Earth observation satellites from companies like Planet Labs, Umbra, and HawkEye 360; GPS; miniature CubeSats for education and research; and military/defense satellites.

Loading next visibility...
Identifier
64154, 2025-112J
Orbit
SSO
Country
Flag of USUS
Related business
Manufacturer
SpaceX/Seattle
Mission
Operational Commercial Communications
Bus & Motor
STARLINK V2MO, Unknown motor
Mass
575 kg wet, ~530 kg dry
Launch date (UTC)
2025-05-27 (1 year ago)
Launch vehicle
FALCON 9
Launch site
Air Force Western Test Range (AFWTR)
Object type
Payload
Rocket body
Debris
Shape & HBR
Box + 1 Pan, 17.7 m
Radar Cross Section
41.120 m², Large (>1 m²)

Expand to show TLE details & history
Last TLE update: 17 hours ago

TLE from 17 hours ago
0 STARLINK-33945
1 64154U 25112J   26237.62781460  .00041428  00000-0  24922-2 0  9995
2 64154  97.2847 292.8140 0002435 130.4136 229.7307 15.10703094 69282
Epoch: 2026-08-25T15:04Z
TLE epoch observation values (Epoch: 2026-08-25T15:04:03.181Z)
Latitude
-0.00003°
Longitude
92.90831°
Altitude
538.224 km
Speed
7.593 km/s
True Right ascension
19h 31m 15s
True Declination
0° 00' 00"
Sunlit
Object was in full shadow at epoch
Visualization orbit readout
Latitude
Unknown
Longitude
Unknown
Altitude
Unknown
Speed
Unknown
Apparent Right ascension
Unknown
Apparent Declination
Unknown
Sunlit
N/A
Visualization observer readout
Local Sidereal Time
23:18:37
Azimuth
Unknown
Elevation
Unknown
Doppler factor
Unknown
Orbital elements
Apogee altitude
532.71 km
Perigee altitude
529.345 km
Semi-major axis
6,909.165 km
Eccentricity
0.00024
Inclination
97.2847°
RAAN
292.814°
Arg. of periapsis
130.4136°
True anomaly
229.70941°
Mean anomaly
229.7307°
Eccentric anomaly
229.72006°
Mean motion
3.77924 °/min
Orbital period
95.26 mins
BSTAR
0.0024922
Loading maneuver chart data...
Computing Atmospheric mass density...
Loading historical data...
Loading historical data...
Loading historical data...
Loading historical data...
Loading historical data...
Loading historical data...
Loading historical data...

Documentation

Showing up to 5 results
|